Regional Weather Roundup
Issued by NWS State College, PA

Home | Current Version | Previous Version | Text Only | Print | Product List | Glossary Off
Versions: 1 2 3 4 5 6 7 8 9 10 11 12 13 14 15 16 17 18 19 20 21 22 23 24 25 26 27 28 29 30 31 32 33 34 35 36 37 38 39 40 41 42 43 44 45 46 47 48 49 50

000
ASUS41 KCTP 221210
RWRCTP

REGIONAL WEATHER ROUNDUP
NATIONAL WEATHER SERVICE STATE COLLEGE PA
700 AM EST MON DEC 22 2014

Note: "fair" indicates few or no clouds below 12,000 feet with no
significant weather and/or obstructions to visibility.

* = STATION THAT DOES NOT REPORT PRECIPITATION /E.G. RAIN...SNOW...ETC/
    THUNDER OR FOG.

PAZ002>004-007>009-013>016-020>023-029>032-221300-
WESTERN PENNSYLVANIA

CITY           SKY/WX    TMP DP  RH WIND       PRES   REMARKS
ERIE           MOCLDY    27  20  75 VRB5      30.15R
MEADVILLE      MOCLDY    24  19  81 VRB5      30.11S
FRANKLIN*      MOCLDY    21  18  86 E8        30.13F WCI  12
NEW CASTLE       N/A     23  20  89 CALM      30.14S
BEAVER COUNTY  CLEAR     25  21  86 E5        30.11
BUTLER*        CLEAR     23  19  86 E6        30.14S
PITTSBURGH INT PTCLDY    25  22  88 E6        30.11R FOG
PITTSBURGH     CLEAR     27  20  75 SE5       30.11R
INDIANA*       CLEAR     27  23  86 CALM      30.17S
LATROBE        CLEAR     28  25  86 VRB3      30.15R
WASHINGTON CO* NOT AVBL
$$

PAZ004>006-010>012-017>019-024>028-033>037-041-042-045-046-049>053-221300-
CENTRAL PENNSYLVANIA

CITY           SKY/WX    TMP DP  RH WIND       PRES   REMARKS
BRADFORD       CLEAR     20  16  84 SE8       30.12F WCI  10
DUBOIS         PTCLDY    22  18  85 E10       30.12F WCI  11
CLEARFIELD     PTCLDY    20  17  88 NE8       30.19S WCI  10
JOHNSTOWN      CLEAR     22  18  85 S5        30.11S
ALTOONA        CLOUDY    24  22  91 CALM      30.21R
STATE COLLEGE  CLEAR     19  18  93 CALM      30.22F
WILLIAMSPORT   CLOUDY    21  17  84 CALM      30.30R
SELINSGROVE    CLEAR     17  14  88 CALM      30.32R FOG
FT INDIANTOWN  CLOUDY    21  18  88 CALM      30.31R
CAPITAL CITY   CLEAR     20  16  84 CALM      30.32R FOG
HARRISBURG     PTCLDY    21  18  88 CALM      30.31R FOG
YORK           CLEAR     16  13  88 CALM      30.29R FOG
$$

PAZ038>040-043-044-047-048-054-055-060>062-067>071-221300-
EASTERN PENNSYLVANIA

CITY           SKY/WX    TMP DP  RH WIND       PRES   REMARKS
SCRANTON       CLOUDY    31  24  75 CALM      30.26S
MOUNT POCONO   CLOUDY    27  25  92 E6        30.22R FOG
ALLENTOWN      CLOUDY    31  26  82 CALM      30.31R
QUAKERTOWN*    CLOUDY    32  27  80 CALM      30.30S
READING        CLOUDY    22  19  89 CALM      30.31R
LANCASTER      CLEAR     20  17  88 CALM      30.30S FOG
COATESVILLE    MOSUNNY   25  23  93 N3        30.29S
POTTSTOWN      CLOUDY    27  23  85 CALM      30.32R
BLUE BELL      CLOUDY    32  28  86 CALM      30.30S
DOYLESTOWN     CLOUDY    31  27  85 CALM      30.29F
WILLOW GROVE   NOT AVBL
NORTH PHILA    CLOUDY    35  26  69 NE6       30.32F
PHILADELPHIA   MOCLDY    31  24  75 VRB3      30.32R
$$


USA.gov is the U.S. government's official web portal to all federal, state and local government web resources and services.